This demonstration page uses our WeatherBlox Daily Observations layout. Learn more.

38.89511, -77.03637

Hourly Observations for October 16, 2020

Temp ( °F °C ) Dew Point ( °F °C ) Humidity (%) Winds ( mph kmh ) Pressure ( in mb ) Visibility ( mi km ) Precip ( " mm )
12:52 am 00:52 Mostly Cloudy 66 18.9 61 16.1 84 84 S 9 15 29.96 1014 10 16.0934 0 0
1:52 am 01:52 Mostly Cloudy 66 18.9 60 15.6 81 81 VRB 7 11 29.98 1015 10 16.0934 0 0
2:52 am 02:52 Cloudy 66 18.9 60 15.6 81 81 S 5 7 29.98 1015 10 16.0934 0 0
3:00 am 03:00 Cloudy with Light Rain 66 18.9 60 15.6 81 81 WNW 3 6 29.99 1016 9 14.48406 0.001 0.001
3:22 am 03:22 Cloudy 65 18.3 55 12.8 70 70 NW 16 26 30 1016 10 16.0934 0.001 0.001
3:42 am 03:42 Cloudy with Light Rain 64 17.8 53 11.7 68 68 NNW 10 17 30 1016 10 16.0934 0.001 0.001
3:45 am 03:45 Cloudy with Light Rain 64 17.8 54 12.2 70 70 NW 7 11 30.01 1016 10 16.0934 0.001 0.001
3:52 am 03:52 Cloudy with Light Rain 63 17.2 54 12.2 73 73 NW 8 13 30.01 1016 10 16.0934 0.001 0.001
4:52 am 04:52 Cloudy 62 16.7 51 10.6 67 67 NNW 10 17 30.02 1017 10 16.0934 0.001 0.001
5:52 am 05:52 Cloudy 62 16.7 48 8.9 60 60 NNW 13 20 30.04 1017 10 16.0934 0 0
6:52 am 06:52 Cloudy with Light Rain 60 15.6 50 10 70 70 N 15 24 30.06 1018 9 14.48406 0.01 0.254
7:52 am 07:52 Cloudy with Light Rain 57 13.9 50 10 78 78 NNW 10 17 30.11 1020 10 16.0934 0.06 1.524
8:08 am 08:08 Cloudy with Rain 56 13.3 52 11.1 87 87 N 10 17 30.12 1020 4 6.43736 0.03 0.762
8:52 am 08:52 Cloudy with Light Rain 56 13.3 51 10.6 84 84 NNE 14 22 30.12 1020 10 16.0934 0.09 2.286
9:52 am 09:52 Cloudy 57 13.9 51 10.6 81 81 N 8 13 30.12 1020 10 16.0934 0.001 0.001
10:52 am 10:52 Cloudy 58 14.4 50 10 75 75 NNE 10 17 30.13 1020 10 16.0934 0.001 0.001
11:52 am 11:52 Cloudy with Light Rain 58 14.4 52 11.1 81 81 ENE 7 11 30.16 1021 10 16.0934 0.001 0.001
12:52 pm 12:52 Cloudy with Light Rain 58 14.4 52 11.1 81 81 E 7 11 30.16 1021 10 16.0934 0.001 0.001
1:52 pm 13:52 Cloudy 58 14.4 51 10.6 78 78 ENE 10 17 30.14 1021 10 16.0934 0.001 0.001
2:52 pm 14:52 Mostly Cloudy 57 13.9 51 10.6 81 81 E 7 11 30.14 1021 10 16.0934 0.001 0.001
3:52 pm 15:52 Mostly Cloudy 59 15 50 10 72 72 NE 8 13 30.12 1020 10 16.0934 0 0
4:52 pm 16:52 Mostly Cloudy 58 14.4 49 9.4 72 72 NE 8 13 30.11 1020 10 16.0934 0 0
5:52 pm 17:52 Cloudy 58 14.4 43 6.1 58 58 NNW 14 22 30.13 1020 10 16.0934 0 0
6:52 pm 18:52 Cloudy with Light Rain 56 13.3 42 5.6 60 60 N 13 20 30.15 1021 10 16.0934 0.001 0.001
7:52 pm 19:52 Cloudy 55 12.8 43 6.1 64 64 N 9 15 30.16 1022 10 16.0934 0.001 0.001
8:52 pm 20:52 Cloudy 56 13.3 42 5.6 60 60 N 9 15 30.16 1021 10 16.0934 0 0
9:52 pm 21:52 Cloudy 55 12.8 43 6.1 64 64 NNW 10 17 30.2 1023 10 16.0934 0.001 0.001
10:52 pm 22:52 Cloudy 55 12.8 43 6.1 64 64 N 13 20 30.19 1022 10 16.0934 0 0
11:52 pm 23:52 Cloudy 54 12.2 43 6.1 67 67 N 10 17 30.19 1022 10 16.0934 0 0

Powered by AerisWeather